#timestamp,LO_Frequency,Hit,StdDev 
1563901215.1,286046996.2,N
1563901235.9,286046995.3,N
1563901255.7,286046997.2,N
1563901275.5,286046995.7,N
1563901295.4,286046997.6,N
1563901315.2,286046997.4,N
1563901335.1,286046995.4,N
1563901336.0,286046995.4,N
1563901355.8,286046995.7,N
1563901375.6,286046995.7,N
1563901395.5,286046997.9,N
1563901415.3,286046995.4,N
1563901435.2,286046995.3,N
1563901455.9,286046995.4,N
1563901475.7,286046998.0,N
1563901495.6,286046997.6,N
1563901515.4,286046995.5,Y
1563901535.3,286047000.2,P
1563901555.1,286047000.0,N
1563901556.0,286047000.0,N
1563901575.8,286046999.7,N
1563901595.7,286047002.8,N
1563901615.5,286047002.7,N
1563901635.3,286047002.3,N
1563901655.2,286047002.2,N
1563901675.0,286047002.7,N
1563901675.9,286047002.7,N
1563901695.8,286047001.0,N
1563901715.6,286047000.2,N
1563901735.4,286047000.3,N
1563901755.3,286046998.2,N
1563901775.1,286047000.0,N
1563901795.8,286046998.2,N
1563901815.7,286046998.1,N
1563901835.5,286047000.5,N
1563901855.4,286046998.5,N
1563901875.2,286046998.7,N
1563901895.0,286046999.4,N
1563901895.9,286046999.4,N
1563901915.8,286047000.9,N
1563901935.6,286047002.8,N
1563901955.4,286047000.2,N
1563901975.3,286047001.5,N
1563901995.1,286047002.2,N
1563902015.9,286047001.6,N
1563902035.7,286047001.8,N
1563902055.5,286047003.4,N
1563902075.4,286047005.6,Y
1563902095.2,286047003.2,P
1563902115.0,286047003.7,N
1563902115.9,286047003.7,N
1563902135.8,286047003.1,N
1563902155.6,286047003.0,N
1563902175.5,286047005.4,Y
1563902195.3,286047002.4,P
1563902215.1,286047000.3,N
1563902235.9,286046998.2,N
1563902255.7,286047000.3,N
1563902275.6,286046998.7,N
1563902295.4,286047000.5,N
1563902315.2,286046998.1,N
1563902335.1,286046999.0,N
1563902336.0,286046999.0,N
1563902355.8,286046998.3,N
1563902375.6,286046999.1,N
1563902395.5,286046997.2,N
1563902415.3,286046996.6,N
1563902435.2,286046997.3,N
1563902455.9,286046996.7,N
1563902475.7,286046998.2,N
1563902495.6,286046997.1,N
1563902515.4,286046999.5,N
1563902535.2,286046999.4,N
1563902555.1,286046999.2,N
1563902556.0,286046999.2,N
1563902575.8,286046999.1,N
1563902595.7,286046996.7,N
1563902615.5,286046997.8,N
1563902635.3,286046998.0,N
1563902655.2,286046997.3,N
1563902675.0,286046997.6,N
1563902675.9,286046997.6,N
1563902695.7,286046998.0,N
1563902715.6,286046996.2,N
1563902735.4,286046998.0,N
1563902755.3,286046997.4,N
1563902775.1,286046997.2,N
1563902776.0,286046997.2,N
1563902795.8,286046997.2,N
1563902815.7,286046997.1,N
1563902835.5,286046997.2,Y
1563902855.3,286046999.3,P
1563902875.2,286046999.2,N
1563902895.0,286046997.1,P
1563902895.9,286046997.1,Y
1563902915.8,286046998.9,P
1563902935.6,286046998.8,P
1563902955.4,286046998.8,P
1563902975.3,286046998.8,Y
1563902995.1,286047002.7,P
1563903015.9,286047001.3,N
1563903035.7,286047002.1,N
1563903055.5,286047001.9,N
1563903075.4,286047003.8,N
1563903095.2,286047001.8,N
1563903115.1,286047001.6,N
1563903116.0,286047001.6,N
1563903135.8,286047002.3,N
1563903155.6,286047001.6,N
1563903175.5,286047002.1,N
1563903195.3,286047002.8,N
1563903215.1,286046999.8,N
1563903235.9,286047001.0,N
1563903255.7,286047000.0,N
1563903275.6,286047002.8,N
1563903295.4,286046999.8,N
1563903315.2,286047000.3,N
1563903335.1,286047002.0,N
1563903336.0,286047002.0,N
1563903355.8,286047002.1,N
1563903375.6,286047002.4,N
1563903395.5,286047002.8,N
1563903415.3,286047001.6,N
1563903435.2,286047001.6,N
1563903455.9,286047004.2,Y
1563903475.7,286047000.3,P
1563903495.6,286047002.7,P
1563903515.4,286047001.3,N
1563903535.2,286046999.9,N
1563903555.1,286046999.8,N
1563903556.0,286046999.8,N
1563903575.8,286046999.9,N
1563903595.7,286046999.9,N
1563903615.5,286046998.2,N
1563903635.3,286046998.4,N
1563903685.2,286046999.6,E
1563903695.1,286046998.6,N
1563903715.9,286047000.9,P
1563903735.7,286047001.2,N
1563903755.5,286047000.7,N
1563903775.4,286046999.0,N
1563903795.2,286046998.5,N
1563903815.0,286046998.5,N
1563903816.0,286046998.5,N
1563903835.8,286047001.2,N
1563903855.6,286047001.0,N
1563903875.5,286046998.1,N
1563903895.3,286047001.2,N
1563903915.1,286047000.8,N
1563903935.9,286047000.6,N
1563903955.7,286046998.2,N
1563903975.6,286046998.1,N
1563903995.4,286047001.1,N
1563904015.2,286047002.7,N
1563904035.1,286047003.8,N
1563904036.0,286047003.8,N
1563904055.8,286047003.9,N
1563904075.6,286047005.9,Y
1563904095.5,286047002.6,P
1563904115.3,286046999.9,N
1563904135.2,286046999.7,N
1563904155.9,286047000.2,N
1563904175.7,286047000.9,N
1563904195.6,286047001.9,N
1563904215.4,286047002.5,N
1563904235.2,286047002.6,N
1563904255.1,286046999.9,N
1563904256.0,286046999.9,N
1563904275.8,286047002.8,N
1563904295.7,286047004.0,Y
1563904315.5,286047003.8,P
1563904335.3,286047004.2,P
1563904355.2,286047001.6,N
1563904375.0,286047002.1,N
1563904375.9,286047002.1,N
1563904395.8,286047000.2,N
1563904415.6,286047000.7,N
1563904435.4,286047001.1,N
1563904455.3,286047002.5,N
1563904475.1,286047001.9,N
1563904495.8,286047002.0,N
1563904515.7,286047001.3,N
1563904535.5,286047002.4,N
1563904555.4,286047002.8,N
1563904575.2,286047001.6,N
1563904595.0,286047001.9,N
1563904595.9,286047001.9,N
1563904615.8,286047004.3,Y
1563904635.6,286046998.2,P
1563904655.5,286046998.1,N
1563904675.3,286046998.3,N
1563904695.1,286046998.9,N
1563904715.9,286046998.3,N
1563904735.7,286046999.5,N
1563904755.5,286046996.6,N
1563904775.4,286046997.0,N
1563904795.2,286046997.2,N
